Location: Asheville, NC
(35.6000°N, 82.5500°W)
Time: 17:32:19
(UTC-04:00)

Vanguard 1 Rocket - Pass Details

Date: 16 December 2017
Orbit: 652 x 4225 km, 34.3° (Epoch: 20 July)

Event Time Altitude Azimuth Distance (km) Brightness Sun altitude
Rises 18:34:42 0° 265° (W) 4,454 12.6 -15.0°
Reaches altitude 10° 18:37:02 10° 265° (W) 3,779 11.8 -15.4°
Maximum altitude 18:47:36 86° 178° (S) 2,460 9.5 -17.5°
Enters shadow 19:02:57 22° 93° (E) 5,602 10.8 -20.5°
Drops below altitude 10° 19:08:51 10° 93° (E) 6,951 - -21.7°
Sets 19:15:04 0° 94° (E) 8,272 - -22.9°
